FENGYUN 1C DEB, 31924

Orbit data source: Space-Track

FENGYUN 1C DEB, 31924 is space debris in SSO originally from a launch on Mon, 10 May 1999 UTC launched from the Taiyaun Space Center, China (TSC). Fengyun 1C debris stems from the Chinese weather satellite Fengyun-1C, which was intentionally destroyed by a Chinese anti-satellite missile in 2007. This event dramatically increased the amount of space debris, with thousands of trackable fragments posing hazards to satellites and human spaceflight. The Fengyun 1C debris cloud has become a focal point in discussions about space sustainability and the need for international regulations to prevent the creation of new debris.

Loading next visibility...
Identifier
31924, 1999-025CMB
Orbit
SSO
Country
Flag of CNCN / PRC
Related business
Manufacturer
Unknown
Mission
Spacecraft
Bus & Motor
Unknown
Mass
Unknown
Launch date (UTC)
1999-05-10 (27 years ago)
Launch vehicle
Unknown
Launch site
Taiyaun Space Center, China (TSC)
Object type
Payload
Rocket body
Debris
Shape & HBR
Unknown shape, 0.1 m
Radar Cross Section
Medium (>0.1 m² and <1 m²)

Expand to show TLE details & history
Last TLE update: 19 hours ago

TLE from 19 hours ago
0 FENGYUN 1C DEB
1 31924U 99025CMB 26256.28072669  .00000610  00000-0  62130-3 0  9997
2 31924  98.4199  22.2257 0271498  89.6065 273.6184 13.64791064952116
Epoch: 2026-09-13T06:44Z
TLE epoch observation values (Epoch: 2026-09-13T06:44:14.786Z)
Latitude
-0.00002°
Longitude
-71.11354°
Altitude
1,013.948 km
Speed
7.348 km/s
True Right ascension
01h 28m 54s
True Declination
0° 00' 00"
Sunlit
Object was in full shadow at epoch
Visualization orbit readout
Latitude
Unknown
Longitude
Unknown
Altitude
Unknown
Speed
Unknown
Apparent Right ascension
Unknown
Apparent Declination
Unknown
Sunlit
N/A
Visualization observer readout
Local Sidereal Time
17:48:48
Azimuth
Unknown
Elevation
Unknown
Doppler factor
Unknown
Orbital elements
Apogee altitude
1,216.285 km
Perigee altitude
814.811 km
Semi-major axis
7,393.685 km
Eccentricity
0.02715
Inclination
98.4199°
RAAN
22.2257°
Arg. of periapsis
89.6065°
True anomaly
270.50833°
Mean anomaly
273.6184°
Eccentric anomaly
272.06384°
Mean motion
3.41391 °/min
Orbital period
105.45 mins
BSTAR
0.0006213
Loading maneuver chart data...
Computing Atmospheric mass density...
Loading historical data...
Loading historical data...
Loading historical data...
Loading historical data...
Loading historical data...
Loading historical data...
Loading historical data...

Documentation

Showing up to 5 results
|